Flag for Germany Weather past 2 weeks in Hamm, North Rhine-Westphalia, Germany

Now
64 °F

Clear.


Feels Like: 64 °F
Forecast: 62 / 76 °F
Wind: 5 mph from East

Location: Muenster / Osnabrueck

Current Time: Aug 2, 2014 at 4:44:02 AM

Latest Report: Aug 2, 2014 at 4:20 AM


Visibility: 10 mi

Pressure: 29.77 "Hg

Humidity: 78%

Dew point: 57 °F

Location of HammLocation

Historic Weather in Hamm — Graph

°F

Hamm temperature yesterday

Maximum temperature yesterday: 82 °F (at 4:20 PM)
Minimum temperature yesterday: 61 °F (at 12:50 AM)
Average temperature yesterday: 71 °F

Past Weeks' High & Low Weather Summary

 TemperatureHumidityPressure
High93 °F (Jul 19, 2:20 PM)100% (Jul 18, 3:20 AM)30.12 "Hg (Jul 18, 3:20 AM)
Low55 °F (Jul 31, 4:20 AM)19% (Jul 19, 3:20 PM)29.74 "Hg (Jul 20, 4:50 AM)
Average71 °F72%29.93 "Hg
* Reported Jul 18 3:20 AM — Aug 2 3:20 AM, Hamm, Weather by CustomWeather, © 2014

Note: Actual official high and low records may vary slightly from our data, if they occured in-between our weather recording intervals... More about our weather records

Advertising

Hamm weather history for previous 24 hours

 ConditionsComfort  
Time TempWeatherWind HumidityBarometerVisibility
3:20 AM
Aug 2
66 °FClear.3 mph78%29.77 "Hg10 mi
2:50 AM66 °FClear.5 mph78%29.80 "Hg10 mi
2:20 AM68 °FClear.5 mph73%29.80 "Hg10 mi
1:50 AM68 °FClear.3 mph73%29.80 "Hg10 mi
1:20 AM68 °FClear.3 mph73%29.80 "Hg10 mi
12:50 AM70 °FClear.3 mph69%29.80 "Hg10 mi
12:20 AM70 °FClear.5 mph69%29.80 "Hg10 mi
11:50 PM
Aug 1
72 °FClear.2 mph65%29.80 "Hg10 mi
11:20 PM70 °FClear.3 mph69%29.80 "Hg10 mi
10:50 PM66 °FClear.2 mph83%29.80 "Hg10 mi
10:20 PM66 °FClear.2 mph88%29.80 "Hg10 mi
9:50 PM68 °FSunny.1 mph78%29.80 "Hg10 mi
9:20 PM70 °FSunny.2 mph73%29.80 "Hg10 mi
8:50 PM75 °FSunny.3 mph54%29.80 "Hg10 mi
8:20 PM77 °FSunny.2 mph51%29.80 "Hg10 mi
7:50 PM79 °FSunny.2 mph48%29.80 "Hg10 mi
7:20 PM81 °FSunny.2 mph45%29.80 "Hg10 mi
6:50 PM81 °FSunny.5 mph39%29.80 "Hg10 mi
6:20 PM82 °FSunny.3 mph37%29.80 "Hg10 mi
5:50 PM81 °FSunny.5 mph37%29.80 "Hg10 mi
5:20 PM82 °FSunny.6 mph35%29.80 "Hg10 mi
4:50 PM82 °FSunny.8 mph35%29.80 "Hg10 mi
4:20 PM82 °FSunny.6 mph37%29.83 "Hg10 mi
3:50 PM81 °FPassing clouds.6 mph42%29.83 "HgN/A
3:20 PM81 °FSunny.3 mph39%29.83 "Hg10 mi
2:50 PM81 °FPassing clouds.5 mph39%29.83 "HgN/A
2:20 PM79 °FSunny.3 mph42%29.83 "Hg10 mi
1:50 PM81 °FSunny.6 mph39%29.83 "Hg10 mi
1:20 PM79 °FSunny.6 mph48%29.83 "Hg10 mi
12:50 PM79 °FSunny.2 mph42%29.86 "Hg10 mi
12:20 PM77 °FPassing clouds.5 mph54%29.86 "HgN/A
11:50 AM75 °FPassing clouds.2 mph54%29.86 "HgN/A
11:20 AM73 °FPassing clouds.2 mph57%29.86 "HgN/A
10:50 AM73 °FPassing clouds.3 mph57%29.86 "HgN/A
10:20 AM72 °FPassing clouds.5 mph57%29.86 "HgN/A
9:50 AM70 °FPassing clouds.3 mph60%29.86 "HgN/A
9:20 AM68 °FSunny.3 mph69%29.86 "Hg10 mi
8:50 AM66 °FSunny.3 mph73%29.86 "Hg10 mi
8:20 AM64 °FSunny.5 mph78%29.89 "Hg10 mi
7:50 AM63 °FSunny.5 mph77%29.86 "Hg10 mi
7:20 AM63 °FSunny.3 mph77%29.86 "Hg10 mi
6:50 AM61 °FSunny.5 mph77%29.86 "Hg10 mi
6:20 AM61 °FClear.3 mph77%29.89 "Hg10 mi
5:50 AM61 °FClear.3 mph77%29.89 "Hg10 mi
5:20 AM61 °FClear.3 mph83%29.89 "Hg10 mi
4:50 AM61 °FClear.3 mph83%29.89 "Hg10 mi
4:20 AM61 °FClear.3 mph83%29.89 "Hg10 mi
Weather by CustomWeather, © 2014

See weather overviewHow to use our weather pages